Wind_Speed
21 21 21 21 21 22 22 21 20 18 18 18 19 20 20 20 20 20 20 20 20 20 19 19 18 18 19 19 19 20 20 21 22 23 24 24 25 25 26 27 27 26 27 28
24 23 24 23 23 23 22 21 21 20 19 19 20 21 21 21 21 20 20 20 20 20 19 19 18 19 19 19 19 19 20 20 20 21 22 22 23 24 24 25 26 26 26 26
28 26 26 26 24 23 23 23 22 21 20 21 21 21 22 21 21 21 20 21 21 20 20 20 20 20 19 19 19 19 19 19 19 19 20 21 21 22 23 24 25 25 25 25
30 29 29 27 25 25 25 25 24 23 22 22 22 23 23 23 22 21 21 21 21 21 21 20 20 20 19 19 18 18 18 18 18 18 19 19 21 22 22 23 23 23 24 24
33 33 32 29 27 26 27 27 26 26 25 25 24 24 24 24 23 22 22 22 22 22 22 21 21 21 20 19 19 19 19 19 19 19 20 21 21 22 23 23 23 23 23 22
36 36 35 32 29 28 29 29 28 28 28 27 26 26 25 26 25 24 23 23 22 22 22 22 22 22 22 22 21 21 21 22 22 22 23 23 23 23 23 23 23 23 23 23
38 39 37 35 33 32 32 31 30 30 30 30 29 28 28 28 28 27 27 26 25 24 24 24 23 23 23 23 23 23 23 23 24 25 25 25 25 25 25 25 25 25 25 26
41 41 38 35 35 34 34 34 34 33 33 32 31 30 30 30 30 29 29 28 27 27 26 25 25 24 23 24 25 24 24 24 25 25 25 25 26 26 25 26 26 27 27 27
43 41 40 38 38 36 37 37 37 37 36 35 34 32 31 31 31 31 30 29 29 28 27 27 27 26 24 24 25 25 25 25 26 26 26 26 27 27 27 27 28 29 29 29
45 42 41 40 39 38 38 39 39 39 39 38 37 35 34 34 33 32 32 31 30 30 28 28 28 27 27 27 27 27 27 27 28 28 28 28 28 29 29 30 30 31 30 31
46 44 43 42 41 40 41 41 42 41 41 40 38 37 37 36 35 34 33 33 32 31 30 30 30 28 28 28 28 28 28 28 29 30 30 29 29 30 31 31 31 31 32 33
46 44 46 45 43 43 44 44 44 44 42 41 40 38 37 37 36 35 34 33 33 33 32 32 32 31 30 30 30 30 30 30 30 31 32 32 31 31 32 33 33 34 34 34
46 46 47 47 46 46 46 45 45 45 44 42 41 40 39 38 37 37 35 35 34 34 34 33 34 33 33 32 32 32 32 32 32 32 32 33 33 33 33 34 34 34 34 34
46 48 48 48 48 47 47 46 46 46 44 43 42 41 40 39 38 38 37 37 36 36 36 35 35 34 34 34 34 33 33 33 33 33 33 33 33 33 33 34 34 34 35 35
47 49 49 48 48 48 47 47 46 46 45 44 43 43 42 40 40 40 40 39 39 38 38 38 38 37 37 37 35 35 34 34 34 34 34 34 34 35 35 35 35 35 36 36
47 48 49 49 49 48 47 47 46 45 44 44 44 44 43 43 42 42 41 41 41 40 40 40 40 39 39 39 37 36 35 35 35 35 35 35 35 36 36 36 36 37 37 37
48 47 48 48 48 48 47 47 45 44 43 43 44 44 43 43 43 43 42 42 42 41 41 42 41 41 41 40 39 38 37 37 37 37 36 36 36 37 37 37 37 37 38 38
47 47 47 47 47 46 46 45 44 43 42 42 42 42 42 41 42 42 42 42 42 41 40 41 41 41 41 40 40 39 39 38 38 37 38 38 38 38 38 38 38 38 38 38
45 45 45 45 45 44 43 43 42 41 40 40 40 41 41 41 41 41 40 40 40 39 39 40 39 39 39 39 39 39 39 38 38 38 38 39 39 39 38 38 38 38 38 38
44 44 44 44 43 42 41 41 41 40 39 38 38 38 38 38 38 38 37 37 37 38 38 38 38 37 37 38 38 38 38 38 39 39 39 39 39 39 39 38 38 38 38 38
43 43 42 42 42 41 40 40 40 39 38 37 36 36 36 36 36 36 36 35 36 36 36 36 36 36 36 36 37 38 37 37 38 38 38 38 38 38 38 38 38 38 38 37
42 42 41 41 40 40 39 38 38 37 36 35 35 35 35 35 35 35 34 34 34 34 34 35 35 35 35 35 35 36 36 37 37 38 38 38 37 37 37 37 36 36 36 36
41 41 40 39 39 38 38 38 37 36 35 34 34 34 34 34 33 34 33 33 33 33 34 33 34 34 34 34 35 35 35 36 36 36 36 36 36 36 36 35 35 35 34 35
41 41 40 39 38 37 37 37 36 35 35 34 33 33 33 33 32 32 33 32 32 32 32 32 32 32 32 33 33 34 34 35 35 36 36 36 35 34 34 34 34 34 34 34
40 40 41 40 39 38 37 36 36 35 34 33 33 32 32 32 31 31 31 31 31 31 31 31 31 31 31 31 32 32 33 33 34 35 35 35 34 34 33 33 33 33 33 33
40 40 39 39 39 38 37 36 35 34 33 33 32 32 31 31 31 30 30 30 31 31 31 30 30 30 31 31 31 31 31 32 33 33 33 33 33 32 32 33 32 32 32 32
40 39 38 37 37 37 37 35 34 33 33 33 32 31 31 31 31 31 31 31 31 30 30 31 31 31 31 31 31 31 31 31 31 31 31 32 32 32 32 32 32 32 32 32
Wind_Direction
299 297 295 294 292 291 292 292 291 291 288 287 286 285 283 285 287 285 282 283 282 280 278 275 274 272 268 268 268 266 263 260 257 255 254 255 256 256 256 257 256 260 260 260
296 296 293 293 293 292 291 292 291 289 287 285 282 283 284 284 285 285 282 281 283 281 277 275 274 272 270 269 269 267 264 260 258 256 255 255 255 256 256 256 257 259 259 260
295 295 293 292 292 289 289 290 290 290 287 282 282 284 283 282 283 283 282 280 280 280 278 275 274 272 271 270 269 268 265 260 259 257 256 256 258 259 260 260 259 259 259 263
294 294 293 296 292 289 288 287 288 288 286 282 281 280 279 280 281 282 282 280 279 279 278 275 274 272 270 270 268 267 266 262 259 258 258 258 259 260 262 263 262 261 263 265
291 292 292 293 292 289 287 285 285 284 283 282 281 279 278 277 278 278 279 279 278 278 277 274 272 270 269 269 268 267 266 265 262 260 260 261 262 263 264 264 262 262 263 265
287 288 290 293 290 287 286 285 283 281 281 281 280 278 276 274 275 276 277 278 278 277 275 274 272 269 268 269 269 268 266 266 266 264 263 263 263 263 264 264 263 262 263 266
286 286 288 291 289 286 285 285 283 281 279 279 279 278 275 272 272 273 273 275 275 276 274 273 273 271 267 267 268 267 266 268 268 266 264 264 263 262 263 263 263 263 265 268
284 285 288 288 287 283 282 280 279 279 278 277 277 276 275 272 270 270 270 271 272 272 272 273 273 272 268 266 267 266 267 267 267 266 265 264 263 263 264 264 265 265 267 269
282 283 284 285 284 281 279 278 277 276 276 276 276 275 274 273 270 268 268 269 270 270 271 271 272 271 268 267 267 266 266 267 267 266 265 264 264 264 265 266 267 267 267 269
280 280 281 281 280 278 278 276 276 275 275 275 274 274 274 273 271 270 268 269 269 268 269 270 271 269 268 268 268 267 266 266 266 267 267 266 265 265 266 267 266 266 268 270
279 279 279 278 278 276 274 273 273 273 273 274 274 273 272 272 270 269 268 267 268 267 267 268 269 269 268 268 269 269 268 268 267 267 266 266 266 265 267 268 268 268 269 271
278 278 277 276 275 274 272 271 271 271 272 272 272 272 271 270 269 268 267 267 267 266 265 265 266 268 267 267 268 269 269 269 269 269 267 265 266 267 269 270 271 270 271 271
276 275 275 275 274 273 272 271 271 270 271 270 269 270 269 268 267 266 266 266 266 265 265 265 265 266 266 266 267 268 268 269 270 271 270 268 268 269 270 271 272 272 272 272
273 273 273 273 273 274 273 272 272 271 270 269 268 269 269 267 265 264 263 264 265 265 265 264 264 265 265 265 266 267 268 269 270 270 270 270 270 271 271 272 273 272 272 272
272 272 273 274 274 275 274 273 273 272 270 269 268 267 268 267 265 262 262 263 265 265 264 263 263 264 265 265 265 266 267 267 268 269 270 270 271 272 273 274 274 273 272 273
273 273 274 274 275 275 275 274 274 273 271 269 267 266 267 266 264 263 263 264 264 265 264 263 263 264 265 265 265 266 266 267 268 268 269 270 271 272 273 274 274 274 272 273
273 273 273 273 274 275 275 275 275 274 272 269 266 265 266 266 264 263 264 264 264 265 264 264 263 263 263 264 265 265 265 266 268 268 269 270 271 272 273 273 274 274 273 274
273 274 274 273 273 274 274 274 275 275 273 270 267 265 265 265 264 264 263 264 264 265 265 264 264 263 263 263 263 264 265 266 267 268 269 270 272 273 274 274 274 274 274 275
272 272 272 272 273 274 275 275 274 274 273 270 268 266 265 264 263 262 262 263 264 264 264 265 264 263 263 262 262 262 264 265 267 268 269 270 271 273 274 275 274 274 274 275
271 271 272 272 272 273 273 272 272 272 272 271 268 266 264 262 262 261 261 261 262 263 264 264 264 264 263 262 262 263 265 265 266 268 270 271 272 272 274 274 274 275 274 275
268 269 270 270 270 271 272 271 271 272 271 270 268 266 263 262 261 261 260 260 261 262 263 264 264 263 263 263 263 263 265 266 267 269 270 271 272 273 273 274 274 275 275 276
268 268 268 269 269 269 270 270 270 270 269 268 266 264 263 262 262 261 260 260 261 262 263 263 263 263 263 264 264 264 265 267 268 270 271 272 272 273 273 273 274 274 275 276
267 266 267 268 268 268 268 267 267 267 267 265 263 262 262 262 262 260 259 260 262 263 263 263 262 263 264 265 266 266 267 268 269 270 271 272 273 273 273 273 273 274 276 276
268 266 265 265 266 267 266 265 265 265 265 263 262 262 261 260 260 260 260 261 263 263 263 263 264 264 266 267 267 267 268 269 269 269 271 272 273 273 273 273 273 274 275 276
267 266 263 262 264 266 266 266 265 264 263 262 262 261 260 259 260 259 259 260 261 263 263 263 265 266 267 268 268 268 268 268 269 270 271 271 272 272 272 272 273 274 274 275
266 266 264 263 264 265 266 266 264 262 261 261 261 261 260 260 260 260 260 261 262 262 262 263 265 267 267 267 268 269 269 269 270 270 270 270 271 272 272 273 274 274 274 274
265 264 264 264 264 265 265 264 263 261 260 259 258 258 259 260 259 259 260 261 262 263 263 264 265 266 267 268 268 269 269 270 271 271 270 270 271 272 273 273 273 273 273 273
Height
5667 5665 5662 5661 5659 5657 5654 5653 5651 5650 5648 5647 5644 5642 5641 5639 5638 5636 5635 5633 5631 5630 5629 5628 5627 5627 5626 5626 5625 5625 5625 5626 5627 5628 5630 5631 5633 5634 5636 5638 5639 5640 5641 5642
5662 5660 5657 5655 5654 5651 5649 5647 5645 5644 5643 5641 5638 5636 5635 5634 5632 5631 5629 5628 5626 5625 5624 5623 5622 5622 5621 5621 5620 5620 5620 5621 5621 5622 5623 5625 5627 5628 5629 5631 5632 5634 5635 5636
5654 5653 5651 5649 5649 5646 5644 5642 5639 5637 5637 5634 5633 5631 5629 5628 5626 5625 5624 5622 5621 5620 5619 5618 5617 5617 5616 5616 5616 5616 5616 5616 5617 5617 5618 5620 5621 5622 5623 5624 5625 5627 5628 5629
5646 5645 5643 5646 5642 5639 5636 5635 5633 5631 5630 5628 5626 5624 5623 5622 5621 5619 5618 5617 5616 5615 5614 5613 5612 5612 5611 5611 5611 5611 5611 5612 5612 5612 5613 5614 5615 5616 5617 5618 5619 5620 5621 5622
5638 5635 5634 5637 5634 5631 5629 5628 5626 5624 5622 5621 5619 5618 5617 5616 5615 5614 5613 5611 5610 5609 5608 5608 5607 5607 5606 5606 5606 5606 5606 5607 5607 5608 5608 5609 5610 5611 5611 5612 5613 5614 5615 5615
5630 5627 5626 5629 5627 5623 5621 5620 5619 5616 5614 5613 5612 5611 5611 5609 5608 5608 5606 5605 5604 5604 5603 5602 5601 5601 5601 5601 5601 5601 5601 5601 5601 5602 5602 5603 5604 5605 5605 5606 5607 5607 5608 5609
5620 5616 5617 5619 5616 5614 5613 5613 5609 5607 5606 5605 5604 5603 5603 5602 5601 5601 5600 5599 5598 5597 5596 5595 5595 5595 5594 5594 5594 5594 5594 5595 5595 5595 5596 5596 5597 5598 5598 5599 5600 5600 5601 5602
5610 5607 5610 5609 5606 5604 5603 5601 5599 5597 5596 5595 5595 5594 5594 5594 5593 5592 5592 5591 5591 5590 5590 5589 5588 5588 5588 5588 5587 5587 5588 5588 5588 5588 5589 5589 5590 5591 5591 5592 5592 5593 5593 5594
5600 5601 5599 5596 5594 5593 5591 5589 5588 5586 5586 5585 5585 5585 5585 5584 5584 5583 5583 5583 5582 5582 5582 5582 5581 5581 5581 5581 5580 5581 5581 5581 5581 5581 5581 5582 5582 5583 5583 5584 5584 5585 5585 5585
5587 5588 5587 5584 5582 5581 5579 5577 5575 5575 5575 5574 5575 5575 5575 5575 5575 5574 5574 5574 5574 5574 5574 5574 5573 5573 5574 5573 5573 5573 5573 5573 5573 5573 5574 5574 5575 5575 5575 5575 5576 5576 5576 5576
5573 5575 5573 5572 5570 5568 5565 5563 5562 5563 5563 5563 5563 5564 5565 5565 5565 5565 5564 5564 5564 5565 5565 5565 5565 5565 5565 5565 5565 5565 5565 5565 5565 5565 5565 5565 5566 5566 5566 5566 5566 5567 5567 5567
5560 5561 5556 5557 5556 5553 5551 5550 5550 5550 5550 5551 5551 5552 5552 5553 5554 5554 5554 5554 5554 5555 5556 5556 5556 5556 5556 5556 5556 5556 5556 5556 5556 5556 5556 5556 5557 5557 5557 5557 5557 5557 5557 5557
5544 5543 5541 5541 5540 5539 5537 5537 5536 5537 5537 5539 5540 5540 5540 5541 5542 5542 5543 5544 5544 5545 5545 5546 5546 5547 5546 5546 5547 5547 5547 5547 5547 5547 5546 5546 5547 5547 5547 5547 5547 5547 5547 5546
5528 5526 5525 5525 5524 5524 5523 5523 5523 5523 5524 5525 5527 5527 5528 5529 5530 5531 5532 5532 5533 5534 5534 5535 5535 5536 5536 5536 5536 5537 5537 5537 5537 5537 5537 5536 5537 5536 5537 5536 5536 5536 5536 5536
5513 5511 5510 5510 5510 5510 5509 5509 5509 5510 5511 5512 5513 5514 5515 5516 5517 5518 5519 5520 5521 5522 5523 5523 5524 5525 5525 5525 5526 5526 5526 5526 5526 5526 5526 5526 5526 5526 5526 5526 5526 5525 5525 5525
5498 5497 5496 5495 5495 5495 5495 5494 5495 5495 5496 5497 5498 5500 5501 5502 5503 5505 5506 5507 5508 5509 5510 5511 5512 5512 5512 5513 5514 5514 5515 5515 5515 5515 5515 5515 5515 5515 5515 5515 5515 5514 5514 5513
5482 5483 5482 5482 5482 5481 5481 5481 5481 5481 5481 5482 5484 5485 5486 5488 5490 5491 5492 5493 5495 5496 5497 5497 5499 5499 5500 5501 5502 5502 5503 5503 5503 5504 5504 5504 5504 5504 5504 5503 5503 5503 5502 5502
5467 5467 5467 5467 5467 5467 5468 5468 5467 5467 5468 5468 5469 5471 5472 5474 5476 5477 5478 5480 5481 5482 5483 5484 5485 5486 5487 5488 5489 5490 5490 5491 5491 5492 5492 5492 5492 5492 5492 5491 5491 5490 5490 5489
5454 5453 5453 5453 5453 5453 5454 5454 5454 5454 5454 5455 5456 5457 5459 5460 5462 5463 5465 5466 5468 5469 5470 5470 5471 5473 5474 5475 5476 5477 5478 5479 5479 5480 5480 5480 5480 5480 5480 5479 5479 5478 5478 5477
5440 5440 5440 5440 5440 5440 5441 5441 5441 5441 5442 5442 5443 5444 5446 5447 5449 5450 5452 5454 5455 5456 5457 5458 5459 5460 5461 5462 5464 5465 5466 5467 5467 5468 5468 5468 5468 5467 5467 5467 5466 5466 5466 5465
5426 5427 5427 5427 5428 5428 5428 5428 5428 5429 5430 5430 5431 5432 5433 5435 5436 5438 5440 5442 5443 5443 5444 5445 5447 5448 5449 5450 5451 5453 5454 5454 5455 5455 5455 5455 5455 5455 5455 5454 5454 5454 5454 5453
5413 5414 5414 5415 5415 5416 5416 5416 5416 5417 5417 5418 5419 5420 5422 5423 5425 5426 5428 5430 5431 5432 5433 5434 5435 5436 5437 5438 5439 5440 5441 5442 5442 5442 5443 5443 5443 5442 5442 5442 5442 5442 5442 5442
5400 5401 5401 5402 5403 5403 5404 5405 5405 5405 5406 5407 5408 5409 5410 5412 5413 5415 5417 5418 5419 5420 5422 5423 5424 5425 5425 5426 5427 5428 5429 5429 5430 5430 5430 5430 5430 5430 5430 5430 5430 5430 5430 5430
5387 5387 5388 5389 5390 5391 5392 5393 5393 5394 5395 5396 5397 5398 5399 5401 5402 5404 5405 5407 5408 5409 5410 5411 5412 5413 5414 5415 5415 5416 5417 5417 5418 5418 5418 5418 5418 5418 5418 5419 5419 5419 5419 5419
5373 5374 5375 5377 5378 5379 5380 5381 5382 5383 5384 5385 5386 5388 5389 5390 5391 5393 5394 5396 5397 5398 5399 5400 5401 5402 5403 5404 5404 5405 5405 5406 5406 5406 5407 5407 5407 5407 5407 5407 5408 5408 5408 5408
5360 5361 5362 5364 5365 5366 5367 5368 5369 5371 5372 5374 5375 5377 5378 5380 5381 5382 5384 5385 5386 5387 5389 5390 5391 5391 5392 5392 5393 5393 5394 5394 5395 5395 5395 5396 5396 5396 5396 5397 5397 5397 5397 5397
5347 5348 5350 5352 5353 5354 5355 5356 5358 5359 5361 5362 5364 5366 5368 5369 5370 5372 5373 5375 5376 5377 5378 5379 5380 5381 5381 5382 5382 5383 5383 5384 5384 5384 5384 5385 5385 5386 5386 5386 5386 5386 5386 5387